Regional Weather Roundup
Issued by NWS

Home | Current Version | Previous Version | Text Only | Print | Product List | Glossary On
Versions: 1 2 3 4 5 6 7 8 9 10 11 12 13 14 15 16 17 18 19 20 21 22 23 24 25 26 27 28 29 30 31 32 33 34 35 36 37 38 39 40 41 42 43 44 45 46 47 48 49 50
124
ASUS43 KLMK 272002
RWRKY
KENTUCKY REGIONAL WEATHER ROUNDUP
NATIONAL WEATHER SERVICE LOUISVILLE KY
400 PM EDT SAT AUG 27 2016

NOTE "FAIR" INDICATES FEW OR NO CLOUDS BELOW 12,000 FEET
WITH NO SIGNIFICANT WEATHER AND/OR OBSTRUCTIONS TO VISIBILITY.

KYZ001>023-026-027-061>063-070>075-272100-
WESTERN AND SOUTH CENTRAL KENTUCKY

CITY           SKY/WX    TMP DP  RH WIND       PRES   REMARKS
PADUCAH        SUNNY     89  73  59 W3        30.04F HX  97
HENDERSON      MOSUNNY   90  73  58 SW5       30.04F HX  98
OWENSBORO      MOSUNNY   92  76  59 W3        30.07F HX 104
HOPKINSVILLE   SUNNY     90  73  56 CALM      30.05F HX  97
BOWLING GREEN  CLOUDY    91  76  61 VRB5      30.06F HX 103
GLASGOW        MOSUNNY   91  76  62 N3        30.07F HX 102
$$

KYZ024-025-028>034-038-045-046-053-272100-
NORTH CENTRAL KENTUCKY

CITY           SKY/WX    TMP DP  RH WIND       PRES   REMARKS
LOUISVILLE/SDF MOSUNNY   89  71  55 N7        30.07F HX  95
LOUISVILLE/LOU SUNNY     88  72  58 NE6       30.08F HX  94
FORT KNOX      SUNNY     87  74  67 NW6       30.07F HX  95
$$

KYZ035>037-039>044-047>052-055>060-089>105-272100-
NORTHEAST KENTUCKY

CITY           SKY/WX    TMP DP  RH WIND       PRES   REMARKS
LEXINGTON      MOSUNNY   93  71  48 VRB5      30.10S HX 100
COVINGTON      LGT RAIN  75  72  90 N3        30.13F
FRANKFORT      SUNNY     89  72  56 N7        30.09R HX  96
$$

KYZ054-064>069-076>088-106>120-272100-
SOUTHEAST KENTUCKY

CITY           SKY/WX    TMP DP  RH WIND       PRES   REMARKS
JACKSON        SUNNY     90  70  51 CALM      30.13F HX  95
LONDON         MOSUNNY   91  63  39 CALM      30.11F HX  92
SOMERSET       PTSUNNY   91  68  46 SW6       30.09F HX  95
MIDDLESBORO    SUNNY     92  70  47 SW5       30.11F HX  98
MONTICELLO     PTCLDY   N/A N/A N/A NE8G16    30.10F
$$





USA.gov is the U.S. government's official web portal to all federal, state and local government web resources and services.